CW9540 Weather Reports


time (UTC)temp
C
wind
direction
speed
KPH
gust
KPH
rain 1hr
cm
rain 24hr
cm
rain mn
cm
humidity
%
barometer
mb
20260906213054 21 63 1.6 4.8 0.00 0.00 0.00 63 1018.4
20260906213004 21 348 1.6 4.8 0.00 0.00 0.00 61 1016.9
20260906212504 22 36 1.6 4.8 0.00 0.00 0.00 61 1017.0
20260906212004 23 354 1.6 4.8 0.00 0.00 0.00 58 1016.9
20260906211602 21 63 1.6 6.4 0.00 0.00 0.00 61 1018.5
20260906211504 22 349 3.2 4.8 0.00 0.00 0.00 60 1016.9
20260906211004 24 328 1.6 4.8 0.00 0.00 0.00 55 1016.9
20260906210100 23 28 1.6 8.0 0.00 0.00 0.00 56 1018.5
20260906210004 23 47 1.6 4.8 0.00 0.00 0.00 57 1016.9
20260906205504 21 353 3.2 4.8 0.00 0.00 0.00 60 1017.0
20260906205004 22 343 3.2 8.0 0.00 0.00 0.00 57 1016.9
20260906204612 24 324 1.6 6.4 0.00 0.00 0.00 56 1018.5
20260906204504 25 17 3.2 4.8 0.00 0.00 0.00 55 1016.9
20260906204004 25 74 1.6 4.8 0.00 0.00 0.00 52 1016.8
20260906203504 24 78 1.6 4.8 0.00 0.00 0.00 56 1016.7
20260906203101 25 1 1.6 8.0 0.00 0.00 0.00 55 1018.3
20260906203004 25 61 1.6 4.8 0.00 0.00 0.00 56 1016.7
20260906202504 23 55 3.2 8.0 0.00 0.00 0.00 58 1016.8
20260906202004 25 22 1.6 4.8 0.00 0.00 0.00 55 1016.7
20260906201610 23 53 1.6 6.4 0.00 0.00 0.00 58 1018.3
20260906201504 24 1 1.6 4.8 0.00 0.00 0.00 58 1016.7
20260906201003 23 36 3.2 4.8 0.00 0.00 0.00 59 1016.7
20260906200503 23 16 3.2 4.8 0.00 0.00 0.00 61 1016.7
20260906200054 22 0 3.2 8.0 0.00 0.00 0.00 62 1018.2
20260906200003 23 0 4.8 8.0 0.00 0.00 0.00 60 1016.6
20260906195504 23 318 3.2 8.0 0.00 0.00 0.00 60 1016.8
20260906195004 25 22 3.2 4.8 0.00 0.00 0.00 57 1016.8
20260906194604 23 56 1.6 9.7 0.00 0.00 0.00 60 1018.4
20260906194504 23 49 3.2 4.8 0.00 0.00 0.00 61 1016.8
20260906194004 23 335 3.2 9.7 0.00 0.00 0.00 62 1016.8
20260906193101 22 28 1.6 8.0 0.00 0.00 0.00 63 1018.4
20260906193003 22 38 3.2 8.0 0.00 0.00 0.00 64 1016.8
20260906192003 23 24 1.6 4.8 0.00 0.00 0.00 60 1016.7
20260906191600 24 0 1.6 6.4 0.00 0.00 0.00 59 1018.2
20260906190504 22 19 1.6 4.8 0.00 0.00 0.00 64 1016.7
20260906190113 22 15 1.6 8.0 0.00 0.00 0.00 62 1018.2
20260906190004 22 10 3.2 4.8 0.00 0.00 0.00 64 1016.6
20260906185004 25 53 3.2 8.0 0.00 0.00 0.00 56 1016.7
20260906184601 24 76 1.6 6.4 0.00 0.00 0.00 57 1018.3
20260906184003 22 19 1.6 4.8 0.00 0.00 0.00 62 1016.7
20260906183503 22 36 1.6 4.8 0.00 0.00 0.00 63 1016.8
20260906183108 25 342 1.6 4.8 0.00 0.00 0.00 55 1018.2
20260906183004 25 50 3.2 4.8 0.00 0.00 0.00 55 1016.8
20260906182503 25 99 3.2 4.8 0.00 0.00 0.00 56 1016.8
20260906182003 23 42 3.2 8.0 0.00 0.00 0.00 61 1016.8
20260906181604 22 331 0.0 6.4 0.00 0.00 0.00 64 1018.4
20260906181004 23 51 3.2 4.8 0.00 0.00 0.00 59 1016.8
20260906180504 25 9 1.6 4.8 0.00 0.00 0.00 57 1016.7
20260906180119 22 46 1.6 6.4 0.00 0.00 0.00 63 1018.4
20260906180004 22 57 1.6 4.8 0.00 0.00 0.00 64 1016.8
20260906175503 23 38 1.6 4.8 0.00 0.00 0.00 62 1016.7
20260906174559 25 20 1.6 6.4 0.00 0.00 0.00 54 1018.4
20260906174503 25 52 3.2 4.8 0.00 0.00 0.00 56 1016.7
20260906174004 25 24 3.2 4.8 0.00 0.00 0.00 53 1016.7
20260906173504 25 42 1.6 4.8 0.00 0.00 0.00 53 1016.8
20260906173119 24 49 1.6 8.0 0.00 0.00 0.00 57 1018.4
20260906172504 24 80 3.2 4.8 0.00 0.00 0.00 60 1016.8
20260906172004 23 318 1.6 4.8 0.00 0.00 0.00 58 1016.9
20260906171559 23 67 1.6 6.4 0.00 0.00 0.00 57 1018.4
20260906171504 23 68 1.6 4.8 0.00 0.00 0.00 60 1016.8
20260906171003 22 5 1.6 4.8 0.00 0.00 0.00 60 1016.9
20260906170503 25 9 3.2 4.8 0.00 0.00 0.00 55 1016.9
20260906170127 24 0 1.6 6.4 0.00 0.00 0.00 58 1018.5
20260906170006 24 55 1.6 4.8 0.00 0.00 0.00 60 1016.8
20260906165503 22 346 3.2 4.8 0.00 0.00 0.00 63 1016.9
20260906165003 24 32 3.2 4.8 0.00 0.00 0.00 58 1016.8
20260906164601 25 81 1.6 9.7 0.00 0.00 0.00 57 1018.3
20260906164503 25 16 3.2 9.7 0.00 0.00 0.00 58 1016.7
20260906164004 23 30 3.2 4.8 0.00 0.00 0.00 62 1016.7
20260906163101 22 8 1.6 8.0 0.00 0.00 0.00 63 1018.5
20260906163004 23 24 3.2 4.8 0.00 0.00 0.00 61 1016.8
20260906162503 24 72 3.2 4.8 0.00 0.00 0.00 59 1016.8
20260906162003 25 49 3.2 8.0 0.00 0.00 0.00 57 1016.8
20260906161554 23 23 1.6 6.4 0.00 0.00 0.00 58 1018.3
20260906161503 23 32 1.6 4.8 0.00 0.00 0.00 60 1016.7
20260906160503 22 26 3.2 4.8 0.00 0.00 0.00 66 1016.8
20260906160003 23 21 1.6 4.8 0.00 0.00 0.00 64 1016.7
20260906155503 23 49 3.2 8.0 0.00 0.00 0.00 62 1016.7
20260906155003 23 100 3.2 4.8 0.00 0.00 0.00 66 1016.7
20260906154559 22 56 1.6 6.4 0.00 0.00 0.00 65 1018.4
20260906154503 22 353 3.2 4.8 0.00 0.00 0.00 67 1016.7
20260906154003 21 62 1.6 4.8 0.00 0.00 0.00 67 1016.7
20260906153504 22 6 3.2 4.8 0.00 0.00 0.00 70 1016.6
20260906153055 21 89 1.6 6.4 0.00 0.00 0.00 71 1018.1
20260906153004 21 26 3.2 4.8 0.00 0.00 0.00 72 1016.4
20260906152503 22 4 3.2 4.8 0.00 0.00 0.00 69 1016.4
20260906152003 22 63 3.2 4.8 0.00 0.00 0.00 70 1016.4
20260906151608 22 0 1.6 4.8 0.00 0.00 0.00 69 1018.0
20260906151504 22 27 3.2 4.8 0.00 0.00 0.00 69 1016.5
20260906151003 21 67 1.6 4.8 0.00 0.00 0.00 70 1016.4
20260906150503 21 36 1.6 4.8 0.00 0.00 0.00 69 1016.5
20260906150105 21 21 1.6 6.4 0.00 0.00 0.00 71 1018.1
20260906150004 21 9 1.6 4.8 0.00 0.00 0.00 74 1016.5
20260906145503 21 44 1.6 4.8 0.00 0.00 0.00 72 1016.5
20260906145003 21 24 3.2 4.8 0.00 0.00 0.00 73 1016.6
20260906144555 21 0 1.6 9.7 0.00 0.00 0.00 72 1018.1
20260906144504 21 41 1.6 4.8 0.00 0.00 0.00 73 1016.5
20260906143504 21 48 3.2 4.8 0.00 0.00 0.00 76 1016.5
20260906143119 20 89 1.6 4.8 0.00 0.00 0.00 76 1018.1
20260906143004 21 35 1.6 4.8 0.00 0.00 0.00 77 1016.5
20260906142003 20 44 1.6 3.2 0.00 0.00 0.00 79 1016.4
20260906141551 20 1 1.6 4.8 0.00 0.00 0.00 79 1018.0
20260906141503 20 87 1.6 3.2 0.00 0.00 0.00 80 1016.3
20260906141003 20 82 1.6 4.8 0.00 0.00 0.00 82 1016.3
20260906140503 19 322 1.6 4.8 0.00 0.00 0.00 82 1016.2
20260906140055 19 1 0.0 4.8 0.00 0.00 0.00 81 1017.6
20260906140004 19 2 1.6 3.2 0.00 0.00 0.00 82 1016.1
20260906135504 19 28 1.6 4.8 0.00 0.00 0.00 83 1016.0
20260906135004 19 22 1.6 4.8 0.00 0.00 0.00 87 1016.0
20260906134600 18 206 1.6 8.0 0.00 0.00 0.00 87 1017.5
20260906134503 18 10 1.6 8.0 0.00 0.00 0.00 88 1016.0
20260906134004 18 327 1.6 8.0 0.00 0.00 0.00 92 1016.0
20260906133503 18 13 1.6 4.8 0.00 0.00 0.00 93 1016.0
20260906133057 18 15 1.6 4.8 0.00 0.00 0.00 93 1017.6
20260906132504 18 25 1.6 4.8 0.00 0.00 0.00 95 1016.0
20260906132003 18 57 1.6 4.8 0.00 0.00 0.00 95 1016.0
20260906131559 17 338 1.6 6.4 0.00 0.00 0.00 95 1017.5
20260906131503 17 19 1.6 4.8 0.00 0.00 0.00 96 1015.9
20260906131004 17 29 1.6 4.8 0.00 0.00 0.00 96 1015.9
20260906130504 17 12 3.2 4.8 0.00 0.00 0.00 96 1015.9
20260906130055 16 1 1.6 4.8 0.00 0.00 0.00 95 1017.4
20260906130004 17 47 1.6 3.2 0.00 0.00 0.00 96 1015.8
20260906125503 16 127 0.0 3.2 0.00 0.00 0.00 96 1015.8
20260906125004 16 184 0.0 3.2 0.00 0.00 0.00 96 1015.9
20260906124555 16 0 0.0 3.2 0.00 0.00 0.00 95 1017.4
20260906124003 16 226 0.0 1.6 0.00 0.00 0.00 95 1015.8
20260906123503 16 109 0.0 1.6 0.00 0.00 0.00 95 1015.8
20260906123128 15 0 0.0 1.6 0.00 0.00 0.00 95 1017.3
20260906123003 16 74 0.0 1.6 0.00 0.00 0.00 95 1015.7
20260906122503 16 109 0.0 1.6 0.00 0.00 0.00 95 1015.7
20260906122004 16 124 0.0 1.6 0.00 0.00 0.00 95 1015.7
20260906121557 15 0 0.0 3.2 0.00 0.00 0.00 95 1017.2
20260906121504 15 323 0.0 3.2 0.00 0.00 0.00 95 1015.7
20260906121004 15 112 0.0 1.6 0.00 0.00 0.00 95 1015.7
20260906120504 15 71 1.6 3.2 0.00 0.00 0.00 95 1015.6
20260906120055 15 0 0.0 1.6 0.00 0.00 0.00 94 1017.1
20260906120004 15 307 0.0 1.6 0.00 0.00 0.00 95 1015.5
20260906115505 15 140 0.0 1.6 0.00 0.00 0.00 95 1015.4
20260906115004 15 74 0.0 1.6 0.00 0.00 0.00 95 1015.2
20260906114604 15 0 0.0 1.6 0.00 0.00 0.00 94 1016.7
20260906114503 15 175 0.0 1.6 0.00 0.00 0.00 95 1015.2
20260906114004 15 116 0.0 1.6 0.00 0.00 0.00 95 1015.2
20260906113101 15 0 0.0 1.6 0.00 0.00 0.00 94 1016.7
20260906113004 15 131 0.0 1.6 0.00 0.00 0.00 95 1015.0
20260906112004 15 181 0.0 3.2 0.00 0.00 0.00 95 1015.0
20260906111557 15 161 0.0 3.2 0.00 0.00 0.00 94 1016.5
20260906111503 15 180 1.6 1.6 0.00 0.00 0.00 95 1015.0
20260906111003 15 183 1.6 1.6 0.00 0.00 0.00 95 1014.9
20260906110503 15 266 0.0 1.6 0.00 0.00 0.00 95 1014.8
20260906110050 15 46 0.0 1.6 0.00 0.00 0.00 94 1016.4
20260906110004 15 105 0.0 1.6 0.00 0.00 0.00 95 1014.8
20260906105503 15 72 0.0 1.6 0.00 0.00 0.00 95 1014.8
20260906105003 15 186 0.0 1.6 0.00 0.00 0.00 95 1014.8
20260906104550 15 0 0.0 3.2 0.00 0.00 0.00 94 1016.4
20260906104503 15 181 0.0 1.6 0.00 0.00 0.00 95 1014.7
20260906104004 15 184 0.0 1.6 0.00 0.00 0.00 94 1014.6
20260906103504 15 91 0.0 1.6 0.00 0.00 0.00 94 1014.6
20260906103056 15 178 0.0 1.6 0.00 0.00 0.00 94 1016.2
20260906103004 15 201 0.0 1.6 0.00 0.00 0.00 94 1014.5
20260906102504 15 116 0.0 1.6 0.00 0.00 0.00 94 1014.5
20260906101551 15 0 0.0 3.2 0.00 0.00 0.00 94 1016.1
20260906101503 15 222 0.0 1.6 0.00 0.00 0.00 94 1014.4
20260906101003 15 177 1.6 3.2 0.00 0.00 0.00 94 1014.4
20260906100503 15 196 1.6 1.6 0.00 0.00 0.00 94 1014.3
20260906100053 15 0 0.0 3.2 0.00 0.00 0.00 94 1015.9
20260906100004 15 250 0.0 1.6 0.00 0.00 0.00 94 1014.2
20260906095504 15 184 1.6 1.6 0.00 0.00 0.00 94 1014.2
20260906095003 16 199 1.6 3.2 0.00 0.00 0.00 94 1014.1
20260906094607 15 0 0.0 3.2 0.00 0.00 0.00 94 1015.8
20260906094504 16 196 1.6 3.2 0.00 0.00 0.00 94 1014.1
20260906094004 16 223 1.6 1.6 0.00 0.00 0.00 94 1014.0
20260906093054 15 145 0.0 1.6 0.00 0.00 0.00 94 1015.8
20260906093004 16 141 0.0 1.6 0.00 0.00 0.00 94 1014.0
20260906092003 16 190 1.6 1.6 0.00 0.00 0.00 94 1013.9
20260906091603 16 135 0.0 3.2 0.00 0.00 0.00 93 1015.7
20260906091503 16 163 1.6 1.6 0.00 0.00 0.00 94 1013.8
20260906091004 16 189 0.0 3.2 0.00 0.00 0.00 94 1013.8
20260906090504 16 227 1.6 3.2 0.00 0.00 0.00 94 1013.7
20260906090054 16 0 0.0 3.2 0.00 0.00 0.00 93 1015.3
20260906090004 16 203 1.6 3.2 0.00 0.00 0.00 94 1013.6
20260906085503 16 171 0.0 1.6 0.00 0.00 0.00 94 1013.4
20260906085003 16 91 0.0 1.6 0.00 0.00 0.00 94 1013.4
20260906084559 16 0 0.0 1.6 0.00 0.00 0.00 93 1015.0
20260906084503 16 157 0.0 1.6 0.00 0.00 0.00 94 1013.3
20260906084004 16 131 0.0 1.6 0.00 0.00 0.00 94 1013.3
20260906083504 16 231 0.0 1.6 0.00 0.00 0.00 94 1013.3
20260906083054 16 0 0.0 1.6 0.00 0.00 0.00 93 1015.0
20260906083004 16 73 0.0 1.6 0.00 0.00 0.00 94 1013.2
20260906082503 16 73 0.0 0.0 0.00 0.00 0.00 94 1013.2
20260906082003 16 3 0.0 1.6 0.00 0.00 0.00 94 1013.2
20260906081551 16 0 0.0 3.2 0.00 0.00 0.00 93 1015.0
20260906081503 16 142 0.0 1.6 0.00 0.00 0.00 94 1013.2
20260906081004 16 181 0.0 3.2 0.00 0.00 0.00 94 1013.2
20260906080504 16 206 0.0 3.2 0.00 0.00 0.00 93 1013.2
20260906080053 16 0 0.0 1.6 0.00 0.00 0.00 93 1015.0
20260906075503 17 91 0.0 1.6 0.00 0.00 0.00 93 1013.3
20260906075003 17 83 0.0 1.6 0.00 0.00 0.00 93 1013.2
20260906074606 16 0 0.0 1.6 0.00 0.00 0.00 93 1015.0
20260906074503 17 325 0.0 1.6 0.00 0.00 0.00 93 1013.1
20260906074004 17 110 0.0 1.6 0.00 0.00 0.00 93 1013.0
20260906073221 17 0 0.0 1.6 0.00 0.00 0.00 93 1014.7
20260906072503 17 230 0.0 1.6 0.00 0.00 0.00 94 1013.0
20260906072003 17 219 0.0 1.6 0.00 0.00 0.00 94 1013.0
20260906071556 17 0 0.0 1.6 0.00 0.00 0.00 93 1014.8
20260906071503 17 95 0.0 0.0 0.00 0.00 0.00 94 1013.0
20260906070503 17 168 0.0 1.6 0.00 0.00 0.00 94 1013.1
20260906070004 17 190 1.6 3.2 0.00 0.00 0.00 93 1013.1
20260906064602 17 223 0.0 1.6 0.00 0.00 0.00 93 1015.0
20260906064504 17 23 0.0 1.6 0.00 0.00 0.00 93 1013.1
20260906064003 17 247 1.6 1.6 0.00 0.00 0.00 93 1013.1
20260906063058 17 0 0.0 1.6 0.00 0.00 0.00 93 1015.0
20260906062504 17 183 0.0 1.6 0.00 0.00 0.00 93 1013.2
20260906062004 17 176 1.6 3.2 0.00 0.00 0.00 93 1013.2
20260906061554 17 178 0.0 1.6 0.00 0.00 0.00 93 1015.0
20260906061504 17 190 1.6 1.6 0.00 0.00 0.00 93 1013.2
20260906060503 17 177 0.0 1.6 0.00 0.00 0.00 93 1013.3
20260906060100 17 0 0.0 3.2 0.00 0.00 0.00 93 1014.9
20260906060003 17 52 0.0 1.6 0.00 0.00 0.00 93 1013.2
20260906055503 17 186 0.0 3.2 0.00 0.00 0.00 93 1013.1
20260906055004 17 162 0.0 1.6 0.00 0.00 0.00 93 1013.2
20260906054556 17 269 0.0 3.2 0.00 0.00 0.00 93 1014.9
20260906054504 17 218 1.6 1.6 0.00 0.00 0.00 93 1013.2
20260906054004 17 165 1.6 3.2 0.00 0.00 0.00 93 1013.3
20260906053503 17 177 1.6 3.2 0.00 0.00 0.00 93 1013.2
20260906053108 17 0 0.0 1.6 0.00 0.00 0.00 93 1015.0
20260906053004 17 231 0.0 1.6 0.00 0.00 0.00 93 1013.3
20260906052504 17 175 0.0 1.6 0.00 0.00 0.00 93 1013.3
20260906051601 17 0 0.0 3.2 0.00 0.00 0.00 93 1015.1
20260906051504 17 201 0.0 1.6 0.00 0.00 0.00 93 1013.3
20260906051004 17 149 1.6 3.2 0.00 0.00 0.00 93 1013.3
20260906050503 17 139 0.0 1.6 0.00 0.00 0.00 93 1013.3
20260906050108 17 124 0.0 3.2 0.00 0.00 0.00 92 1015.0
20260906050004 17 193 1.6 3.2 0.00 0.00 0.00 93 1013.3
20260906045504 17 206 0.0 1.6 0.00 0.00 0.00 93 1013.2
20260906045004 17 243 1.6 3.2 0.00 0.00 0.00 93 1013.2
20260906044600 17 253 0.0 3.2 0.00 0.00 0.00 92 1014.8
20260906044003 17 183 1.6 3.2 0.00 0.00 0.00 93 1013.2
20260906043503 17 126 1.6 3.2 0.00 0.00 0.00 92 1013.1
20260906043101 17 0 0.0 4.8 0.00 0.00 0.00 92 1014.7
20260906042504 17 255 0.0 3.2 0.00 0.00 0.00 92 1013.0
20260906042003 17 33 0.0 1.6 0.00 0.00 0.00 92 1013.1
20260906041603 17 0 0.0 1.6 0.00 0.00 0.00 91 1014.8
20260906041503 17 165 1.6 1.6 0.00 0.00 0.00 92 1013.1
20260906041004 17 150 0.0 1.6 0.00 0.00 0.00 92 1013.1
20260906040503 17 106 0.0 1.6 0.00 0.00 0.00 91 1012.9
20260906040056 17 135 0.0 3.2 0.00 0.00 0.00 91 1014.6
20260906035503 18 182 1.6 3.2 0.00 0.00 0.00 91 1012.9
20260906035004 18 172 1.6 3.2 0.00 0.00 0.00 91 1012.9
20260906034605 17 190 0.0 1.6 0.00 0.00 0.00 91 1014.6
20260906034504 18 223 0.0 1.6 0.00 0.00 0.00 91 1012.8
20260906034003 18 227 1.6 1.6 0.00 0.00 0.00 91 1012.8
20260906033503 18 97 0.0 1.6 0.00 0.00 0.00 91 1012.9
20260906033109 18 0 0.0 1.6 0.00 0.00 0.00 90 1014.5
20260906033004 18 118 0.0 1.6 0.00 0.00 0.00 91 1012.8
20260906032504 18 87 0.0 1.6 0.00 0.00 0.00 91 1012.9
20260906032004 18 127 0.0 1.6 0.00 0.00 0.00 91 1012.9
20260906031554 18 0 0.0 1.6 0.00 0.00 0.00 90 1014.6
20260906031503 18 109 1.6 1.6 0.00 0.00 0.00 90 1012.9
20260906030503 18 194 0.0 1.6 0.00 0.00 0.00 90 1012.8
20260906030004 18 169 0.0 1.6 0.00 0.00 0.00 90 1012.7
20260906025504 18 48 0.0 1.6 0.00 0.00 0.00 90 1012.6
20260906025004 18 26 0.0 1.6 0.00 0.00 0.00 90 1012.7
20260906024558 18 0 0.0 1.6 0.00 0.00 0.00 89 1014.4
20260906024503 18 93 1.6 1.6 0.00 0.00 0.00 90 1012.7
20260906024003 18 180 1.6 1.6 0.00 0.00 0.00 90 1012.6
20260906023504 18 118 0.0 1.6 0.00 0.00 0.00 89 1012.6
20260906023103 18 0 0.0 1.6 0.00 0.00 0.00 89 1014.2
20260906023004 18 86 1.6 1.6 0.00 0.00 0.00 89 1012.5
20260906022504 18 38 1.6 1.6 0.00 0.00 0.00 89 1012.6
20260906022004 18 274 0.0 1.6 0.00 0.00 0.00 89 1012.5
20260906021606 18 0 0.0 1.6 0.00 0.00 0.00 88 1014.2
20260906021503 18 219 1.6 1.6 0.00 0.00 0.00 89 1012.6
20260906021003 18 51 0.0 1.6 0.00 0.00 0.00 88 1012.5
20260906020503 18 35 0.0 1.6 0.00 0.00 0.00 88 1012.5
20260906020107 18 0 0.0 1.6 0.00 0.00 0.00 87 1014.2
20260906020004 18 74 0.0 1.6 0.00 0.00 0.00 88 1012.6
20260906015503 18 334 0.0 1.6 0.00 0.00 0.00 87 1012.6
20260906015004 18 128 0.0 1.6 0.00 0.00 0.00 87 1012.5
20260906014555 18 0 0.0 1.6 0.00 0.00 0.00 86 1014.2
20260906014503 19 152 0.0 1.6 0.00 0.00 0.00 87 1012.5
20260906014004 19 137 0.0 1.6 0.00 0.00 0.00 86 1012.4
20260906013110 19 0 0.0 1.6 0.00 0.00 0.00 85 1014.1
20260906013004 19 55 0.0 1.6 0.00 0.00 0.00 86 1012.3
20260906012503 19 43 0.0 0.0 0.00 0.00 0.00 85 1012.3
20260906012004 20 16 0.0 0.0 0.00 0.00 0.00 85 1012.3
20260906011604 19 0 0.0 1.6 0.00 0.00 0.00 84 1014.1
20260906011504 20 111 0.0 1.6 0.00 0.00 0.00 85 1012.3
20260906011003 20 47 0.0 1.6 0.00 0.00 0.00 85 1012.3
20260906010503 20 95 0.0 1.6 0.00 0.00 0.00 84 1012.2
20260906010100 20 0 0.0 1.6 0.00 0.00 0.00 83 1014.1
20260906010004 20 78 0.0 1.6 0.00 0.00 0.00 84 1012.3
20260906005504 20 30 0.0 0.0 0.00 0.00 0.00 83 1012.3
20260906004604 20 0 0.0 1.6 0.00 0.00 0.00 82 1014.0
20260906004503 20 254 0.0 1.6 0.00 0.00 0.00 82 1012.3
20260906004003 20 150 0.0 1.6 0.00 0.00 0.00 82 1012.2
20260906003504 20 91 0.0 1.6 0.00 0.00 0.00 82 1012.1
20260906003103 20 0 0.0 1.6 0.00 0.00 0.00 81 1013.8
20260906003004 20 75 0.0 0.0 0.00 0.00 0.00 81 1012.2
20260906002003 20 125 0.0 1.6 0.00 0.00 0.00 80 1012.1
20260906001555 20 0 0.0 1.6 0.00 0.00 0.00 80 1013.8
20260906001503 21 81 0.0 1.6 0.00 0.00 0.00 80 1012.2
20260906000504 21 94 0.0 1.6 0.00 0.00 0.00 81 1012.3
20260906000100 20 0 0.0 1.6 0.00 0.00 0.00 79 1013.9
20260906000004 21 334 0.0 1.6 0.00 0.00 0.00 80 1012.3
20260905235504 21 200 0.0 1.6 0.00 0.00 0.00 79 1012.3
20260905235004 21 66 0.0 1.6 0.00 0.00 0.00 79 1012.2
20260905234554 21 340 0.0 1.6 0.00 0.00 0.00 78 1013.8
20260905234504 21 114 0.0 1.6 0.00 0.00 0.00 79 1012.2
20260905234004 21 141 0.0 1.6 0.00 0.00 0.00 79 1012.2
20260905233503 21 30 0.0 1.6 0.00 0.00 0.00 79 1012.2
20260905233103 21 303 0.0 1.6 0.00 0.00 0.00 78 1013.9
20260905233004 21 341 0.0 1.6 0.00 0.00 0.00 78 1012.2
20260905232503 21 69 0.0 1.6 0.00 0.00 0.00 78 1012.3
20260905232004 21 324 0.0 1.6 0.00 0.00 0.00 77 1012.3
20260905231603 21 117 0.0 3.2 0.00 0.00 0.00 77 1013.9
20260905231503 21 54 0.0 1.6 0.00 0.00 0.00 77 1012.3
20260905231004 21 41 0.0 3.2 0.00 0.00 0.00 77 1012.2
20260905230504 21 18 0.0 1.6 0.00 0.00 0.00 77 1012.2
20260905230100 21 0 0.0 3.2 0.00 0.00 0.00 76 1013.9
20260905230004 21 72 0.0 3.2 0.00 0.00 0.00 77 1012.3
20260905225504 21 65 0.0 3.2 0.00 0.00 0.00 76 1012.3
20260905225003 21 38 1.6 3.2 0.00 0.00 0.00 76 1012.3
20260905224604 21 303 0.0 3.2 0.00 0.00 0.00 75 1014.0
20260905224504 22 2 1.6 3.2 0.00 0.00 0.00 76 1012.4
20260905224004 22 73 1.6 3.2 0.00 0.00 0.00 75 1012.3
20260905223504 22 338 0.0 1.6 0.00 0.00 0.00 74 1012.3
20260905223103 22 0 0.0 3.2 0.00 0.00 0.00 73 1013.8
20260905223004 22 354 0.0 3.2 0.00 0.00 0.00 73 1012.2
20260905222503 22 86 0.0 3.2 0.00 0.00 0.00 73 1012.2
20260905222003 22 352 0.0 3.2 0.00 0.00 0.00 73 1012.1
20260905221604 22 331 1.6 4.8 0.00 0.00 0.00 71 1013.8
20260905221503 22 346 1.6 4.8 0.00 0.00 0.00 71 1012.1
20260905221003 23 348 1.6 3.2 0.00 0.00 0.00 71 1012.0
20260905220504 23 48 3.2 4.8 0.00 0.00 0.00 72 1011.9
20260905220059 23 314 1.6 4.8 0.00 0.00 0.00 70 1013.6
20260905220004 23 11 1.6 4.8 0.00 0.00 0.00 70 1012.0
20260905215503 23 337 1.6 3.2 0.00 0.00 0.00 68 1011.9
20260905215004 24 36 1.6 4.8 0.00 0.00 0.00 66 1011.7
20260905214600 24 46 0.0 3.2 0.00 0.00 0.00 64 1013.5
20260905214503 25 0 1.6 3.2 0.00 0.00 0.00 65 1011.8